Regional Weather Roundup
Issued by NWS

Home | Current Version | Previous Version | Text Only | Print | Product List | Glossary Off
Versions: 1 2 3 4 5 6 7 8 9 10 11 12 13 14 15 16 17 18 19 20 21 22 23 24 25 26 27 28 29 30 31 32 33 34 35 36 37 38 39 40 41 42 43 44 45 46 47 48 49 50

377
ASUS43 KMKX 230200
RWRWI

WISCONSIN REGIONAL WEATHER ROUNDUP
NATIONAL WEATHER SERVICE MILWAUKEE/SULLIVAN WI
900 PM CDT SAT JUL 22 2017

NOTE: "FAIR" INDICATES FEW OR NO CLOUDS BELOW 12,000 FEET WITH NO
SIGNIFICANT WEATHER AND/OR OBSTRUCTIONS TO VISIBILITY.

WIZ001-002-006>008-014>016-023>028-230300-
NORTHWEST WISCONSIN

CITY           SKY/WX    TMP DP  RH WIND       PRES   REMARKS
SUPERIOR ARPT  NOT AVBL
ASHLAND        CLEAR     61  57  87 NE7       29.80F
HAYWARD        PTCLDY    70  66  87 CALM      29.80S
SIREN          PTCLDY    76  61  59 NW6       29.83R
CUMBERLAND     CLEAR     72  63  73 CALM      29.82S
RICE LAKE      PTCLDY    75  64  69 W5        29.83S
CHETEK         CLEAR     78  66  67 CALM      29.81S HX  80
LADYSMITH      CLEAR     76  67  74 CALM      29.83S
EAU CLAIRE     NOT AVBL
MENOMONIE      CLEAR     76  71  83 CALM      29.81S
NEW RICHMOND   CLEAR     76  63  64 W5        29.83R
OSCEOLA        CLEAR     77  62  58 NW5       29.85R
$$

WIZ003>005-009-010-017-018-230300-
NORTH CENTRAL WISCONSIN

CITY           SKY/WX    TMP DP  RH WIND       PRES   REMARKS
MANITOWISH WTR CLOUDY    72  64  75 NW5       29.82S
ARBOR VITAE    CLOUDY    72  62  72 NW5       29.82R
WOODRUFF       CLOUDY    72  62  72 NW5       29.82R
RHINELANDER    CLEAR     72  64  76 NW3       29.83R
EAGLE RIVER    CLEAR     69  62  76 CALM      29.82R
LAND O LAKES   CLEAR     71  63  78 N3        29.83S
PHILLIPS       CLEAR     69  68  98 CALM      29.82R
TOMAHAWK         N/A     69  66  90 CALM      29.82S
MEDFORD        CLEAR     76  68  75 W3        29.81S
MERRILL        CLEAR     76  67  74 N5        29.81R
$$

WIZ029-030-035-036-043>047-230300-
CENTRAL WISCONSIN

CITY           SKY/WX    TMP DP  RH WIND       PRES   REMARKS
WAUSAU         PTCLDY    77  67  71 W6        29.78R
MOSINEE        NOT AVBL
MARSHFIELD     CLOUDY    76  68  76 W8        29.81R
STEVENS POINT  MOCLDY    79  68  69 W3        29.80S HX  81
WAUPACA        MOCLDY    78  73  83 CALM      29.78S HX  81
WAUTOMA        CLOUDY    77  72  84 SW6       29.80S
WISC RAPIDS    LGT RAIN  79  71  76 CALM      29.81R HX  82
CAMP DOUGLAS   NOT AVBL
$$

WIZ011>013-019>022-031-037>040-048>050-230300-
NORTHEAST WISCONSIN

CITY           SKY/WX    TMP DP  RH WIND       PRES   REMARKS
ANTIGO         CLOUDY    73  67  83 CALM      29.82R
SHAWANO        CLOUDY    76  66  72 SE3       29.77F
OCONTO         CLOUDY    72  68  86 S3        29.76R
STURGEON BAY     N/A     68  64  87 SE6       29.80R
GREEN BAY      MOCLDY    76  69  79 S13       29.78S
MANITOWOC      NOT AVBL
APPLETON       MOCLDY    75  66  73 S6        29.78S
CLINTONVILLE   CLOUDY    77  68  73 S5        29.77F
OSHKOSH        PTCLDY    75  70  84 S6        29.80R
$$

WIZ032>034-041-042-053>061-230300-
SOUTHWEST WISCONSIN

CITY           SKY/WX    TMP DP  RH WIND       PRES   REMARKS
LA CROSSE      TSTM      78  67  68 NW28G38   29.82R HX  80
SPARTA         PTCLDY    74  71  88 SW3       29.81S
VIROQUA        MOCLDY    75  72  92 S3        29.83F
BOSCOBEL       PTCLDY    76  74  93 CALM      29.81F
PRAIRIE DU CHI PTCLDY    78  72  82 CALM      29.80F HX  80
PLATTEVILLE    PTCLDY    78  77  98 CALM      29.84R HX  80
$$

WIZ056-057-062-063-064-067-068-230300-
SOUTH CENTRAL WISCONSIN

CITY           SKY/WX    TMP DP  RH WIND       PRES   REMARKS
REEDSBURG      PTCLDY    75  74  96 SW3       29.81S
BARABOO/DELLS  PTCLDY    74  68  81 CALM      29.82R
LONE ROCK      NOT AVBL
MINERAL POINT  CLEAR     77  75  94 CALM      29.84S
MADISON        MOCLDY    74  71  91 CALM      29.82R
MIDDLETON      PTCLDY    75  74  99 CALM      29.83S
WATERTOWN      PTCLDY    75  73  91 CALM      29.82R
MONROE         CLEAR     79  70  73 CALM      29.83S HX  81
JANESVILLE     PTCLDY    79  72  78 CALM      29.81S HX  82
$$

WIZ051-052-058>065-066-070>072-230300-
SOUTHEAST WISCONSIN

CITY           SKY/WX    TMP DP  RH WIND       PRES   REMARKS
MILWAUKEE      MOCLDY    73  68  84 SE6       29.83R
WAUKESHA       PTCLDY    73  66  78 W3        29.83R
MILWAUKEE/TIMM PTCLDY    72  64  78 CALM      29.83R
RACINE         MOCLDY    73  70  90 SE5       29.84R
KENOSHA        CLEAR     73  69  87 SE6       29.83R
FOND DU LAC    CLEAR     76  69  79 SW6       29.81R
SHEBOYGAN      CLEAR     69  68  96 S5        29.81S
WEST BEND      PTCLDY    70  68  94 CALM      29.83R
JUNEAU         CLEAR     73  70  89 CALM      29.84R
$$

LSZ147-162-230300-
LAKE SUPERIOR

STATION/POSITION TIME  TEMP    WIND        PRES    WAVE
                       AIR SEA DIR/SP/G            HT/PER
                 (UTC) (F)     (DEG/KT/KT) (MB)    (FT/S)
W MID LAKE BUOY  0050   48 48   10/  8/  8 1009.6R   2/ 4
DEVILS ISLAND    0100   54      30/  8/  9 1010.3R
PORT WING        0101   58      60/  9/ 19 1009.8R
SAXON HARBOR     0140   61      50/  5/  5 1008.8F
$$

LMZ867-665-643>646-230300-
LAKE MICHIGAN

STATION/POSITION TIME  TEMP    WIND        PRES    WAVE
                       AIR SEA DIR/SP/G            HT/PER
                 (UTC) (F)     (DEG/KT/KT) (MB)    (FT/S)
CHAMBERS ISLAND  0130   71     130/  4/  8 1007.8R
S GREEN BAY BUOY 0130   74 74  150/ 10/ 12 1008.0F
N MID LAKE BUOY  0050   70 69  140/  2/  2 1009.2R   0
NORTHPORT PIER   0140   71     130/  8/ 10 1008.5S
KEWAUNEE LAKESHO 0130   70     180/  7/  8 1008.3F
SHEBOYGAN LAKESH 0100   71     150/  5/  6 1008.7R
PORT WASHINGTON  0140   71     220/  1/  3 1010.5R
ATWATER BUOY     0009   71 70   50/  2/  4 1009.5F
MILWAUKEE LAKESH 0130   70     200/  2/  3   N/A
S MID LAKE BUOY  0050   70 70   10/  2/  4 1009.1R   1
KENOSHA   LAKESH 0100   73     160/  4/  4 1009.5
$$

TC  - TEMPERATURE IN CELSIUS
VSB - VISIBILITY IN STATUTE MILES
WCI - WIND CHILL INDEX
HX  - HEAT INDEX





USA.gov is the U.S. government's official web portal to all federal, state and local government web resources and services.